Simultaneous Nadir Overpasses (SNOs) Predictions

Prediction of SNOs between GOES-16 and NPP Satellite Orbit:

Table of predicted SNOs for the next 14.0 days since TLE Epoch: 1/14/2023
Index Date Time (GOES-16) GOES-16 Lat,Lon NPP Lat,Lon Distance(km) Time Diff (sec)
1 01/15/2023 18:28:07 0.04, -75.20 -0.08, -75.73 60.61 80
2 01/16/2023 18:12:04 0.04, -75.20 0.96, -71.21 456.41 80
3 01/18/2023 06:33:52 -0.03, -75.21 0.24, -76.47 143.71 80
4 01/19/2023 06:12:28 -0.02, -75.21 -0.74, -71.93 373.25 80
5 01/20/2023 18:34:25 0.01, -75.22 -0.45, -77.23 229.80 80
6 01/21/2023 18:18:22 0.01, -75.23 0.59, -72.71 287.55 80
7 01/23/2023 06:40:10 -0.01, -75.24 0.60, -77.97 311.65 80
8 01/24/2023 06:18:46 -0.02, -75.25 -0.45, -73.45 205.46 80
9 01/25/2023 18:40:43 0.02, -75.27 -0.79, -78.74 396.21 80
10 01/26/2023 18:24:39 0.02, -75.29 0.27, -74.22 122.11 80
